Simultaneous Nadir Overpasses (SNOs) Predictions

Prediction of SNOs between AQUA and NOAA-19 Satellite Orbit:

Table of predicted SNOs for the next 14.0 days since TLE Epoch: 11/30/2012
Index Date (AQUA) Time (AQUA) AQUA Lat,Lon Date (NOAA-19) Time (NOAA-19) NOAA-19 Lat,Lon Distance(km) Time Diff (sec)
1 12/01/2012 05:28:27 -46.01, 130.25 12/01/2012 05:27:22 -45.85, 130.97 58.12 65
2 12/01/2012 06:17:18 47.94, -61.36 12/01/2012 06:17:50 47.87, -60.97 30.12 32
3 12/03/2012 10:12:49 -46.04, 59.17 12/03/2012 10:11:51 -45.93, 59.88 56.25 58
4 12/03/2012 11:01:33 48.38,-132.28 12/03/2012 11:02:13 48.32,-131.90 28.82 40
5 12/05/2012 14:57:12 -46.04, -11.93 12/05/2012 14:56:22 -45.88, -11.26 54.56 50
6 12/05/2012 15:45:48 48.85, 156.82 12/05/2012 15:46:35 48.80, 157.19 27.92 47
7 12/07/2012 19:41:36
